| time (UTC) | temp F | wind direction | speed MPH | gust MPH | rain 1hr in | rain 24hr in | rain mn in | humidity % | barometer mb |
| 20260508220357 | 55 | 223 | 1.0 | 1.0 | 0.00 | 0.00 | 0.00 | 85 | 1008.3 |
| 20260508220041 | 54 | 153 | 0.0 | 1.0 | 0.00 | 0.00 | 0.00 | 100 | 1008.9 |
| 20260508215637 | 55 | 45 | 0.0 | 1.0 | 0.00 | 0.00 | 0.00 | 85 | 1008.4 |
| 20260508215347 | 55 | 45 | 0.0 | 1.0 | 0.00 | 0.00 | 0.00 | 84 | 1008.5 |
| 20260508215334 | 55 | 135 | 1.0 | 1.0 | 0.00 | 0.00 | 0.00 | 84 | 1008.4 |
| 20260508214537 | 55 | 0 | 0.0 | 0.0 | 0.00 | 0.00 | 0.00 | 100 | 1009.1 |
| 20260508214403 | 55 | 45 | 0.0 | 1.0 | 0.00 | 0.00 | 0.00 | 84 | 1008.6 |
| 20260508213637 | 55 | 178 | 0.0 | 1.0 | 0.00 | 0.00 | 0.00 | 84 | 1008.6 |
| 20260508213134 | 56 | 178 | 0.0 | 2.0 | 0.00 | 0.00 | 0.00 | 84 | 1008.6 |
| 20260508213035 | 55 | 0 | 0.0 | 1.0 | 0.00 | 0.00 | 0.00 | 100 | 1009.1 |
| 20260508212635 | 56 | 241 | 0.0 | 2.0 | 0.00 | 0.00 | 0.00 | 83 | 1008.6 |
| 20260508212134 | 56 | 1 | 0.0 | 2.0 | 0.00 | 0.00 | 0.00 | 83 | 1008.6 |
| 20260508211635 | 56 | 142 | 1.0 | 2.0 | 0.00 | 0.00 | 0.00 | 83 | 1008.7 |
| 20260508211538 | 56 | 0 | 0.0 | 1.0 | 0.00 | 0.00 | 0.00 | 100 | 1009.2 |
| 20260508211133 | 56 | 1 | 1.0 | 2.0 | 0.00 | 0.00 | 0.00 | 83 | 1008.8 |
| 20260508210634 | 56 | 89 | 1.0 | 2.0 | 0.00 | 0.00 | 0.00 | 82 | 1008.9 |
| 20260508210613 | 56 | 63 | 1.0 | 2.0 | 0.00 | 0.00 | 0.00 | 83 | 1009.0 |
| 20260508210039 | 56 | 68 | 0.0 | 1.0 | 0.00 | 0.00 | 0.00 | 99 | 1009.4 |
| 20260508205634 | 56 | 117 | 0.0 | 3.0 | 0.00 | 0.00 | 0.00 | 82 | 1008.9 |
| 20260508205359 | 57 | 135 | 1.0 | 3.0 | 0.00 | 0.00 | 0.00 | 82 | 1008.8 |
| 20260508204633 | 57 | 152 | 1.0 | 2.0 | 0.00 | 0.00 | 0.00 | 79 | 1008.8 |
| 20260508204538 | 57 | 153 | 0.0 | 1.0 | 0.00 | 0.00 | 0.00 | 99 | 1009.4 |
| 20260508204134 | 57 | 178 | 0.0 | 2.0 | 0.00 | 0.00 | 0.00 | 79 | 1008.8 |
| 20260508203632 | 57 | 223 | 0.0 | 2.0 | 0.00 | 0.00 | 0.00 | 79 | 1008.7 |
| 20260508203133 | 57 | 45 | 1.0 | 2.0 | 0.00 | 0.00 | 0.00 | 78 | 1008.7 |
| 20260508203035 | 57 | 120 | 1.0 | 4.0 | 0.00 | 0.00 | 0.00 | 98 | 1009.3 |
| 20260508202632 | 58 | 45 | 0.0 | 2.0 | 0.00 | 0.00 | 0.00 | 78 | 1008.7 |
| 20260508202132 | 58 | 45 | 1.0 | 2.0 | 0.00 | 0.00 | 0.00 | 77 | 1008.7 |
| 20260508201633 | 58 | 178 | 1.0 | 2.0 | 0.00 | 0.00 | 0.00 | 77 | 1008.6 |
| 20260508201537 | 57 | 68 | 1.0 | 1.0 | 0.00 | 0.00 | 0.00 | 95 | 1009.1 |
| 20260508201132 | 58 | 117 | 1.0 | 1.0 | 0.00 | 0.00 | 0.00 | 76 | 1008.6 |
| 20260508200858 | 58 | 45 | 1.0 | 1.0 | 0.00 | 0.00 | 0.00 | 75 | 1008.5 |
| 20260508200132 | 59 | 178 | 0.0 | 1.0 | 0.00 | 0.00 | 0.00 | 75 | 1008.4 |
| 20260508200045 | 59 | 0 | 0.0 | 1.0 | 0.00 | 0.00 | 0.00 | 95 | 1008.9 |
| 20260508195632 | 59 | 89 | 0.0 | 2.0 | 0.00 | 0.00 | 0.00 | 75 | 1008.4 |
| 20260508195132 | 59 | 223 | 0.0 | 2.0 | 0.00 | 0.00 | 0.00 | 75 | 1008.4 |
| 20260508194631 | 59 | 56 | 1.0 | 2.0 | 0.00 | 0.00 | 0.00 | 75 | 1008.4 |
| 20260508194541 | 59 | 0 | 0.0 | 1.0 | 0.00 | 0.00 | 0.00 | 95 | 1008.9 |
| 20260508194130 | 60 | 152 | 1.0 | 2.0 | 0.00 | 0.00 | 0.00 | 76 | 1008.5 |
| 20260508193631 | 60 | 178 | 0.0 | 2.0 | 0.00 | 0.00 | 0.00 | 76 | 1008.4 |
| 20260508193131 | 60 | 152 | 0.0 | 2.0 | 0.00 | 0.00 | 0.00 | 74 | 1008.3 |
| 20260508193040 | 59 | 162 | 1.0 | 2.0 | 0.00 | 0.00 | 0.00 | 71 | 1008.8 |
| 20260508192631 | 60 | 161 | 1.0 | 2.0 | 0.00 | 0.00 | 0.00 | 74 | 1008.4 |
| 20260508192131 | 60 | 63 | 1.0 | 2.0 | 0.00 | 0.00 | 0.00 | 73 | 1008.4 |
| 20260508191631 | 60 | 45 | 1.0 | 2.0 | 0.00 | 0.00 | 0.00 | 73 | 1008.5 |
| 20260508191539 | 60 | 137 | 0.0 | 1.0 | 0.00 | 0.00 | 0.00 | 71 | 1009.0 |
| 20260508191354 | 61 | 178 | 1.0 | 2.0 | 0.00 | 0.00 | 0.00 | 72 | 1008.5 |
| 20260508190631 | 61 | 223 | 1.0 | 2.0 | 0.00 | 0.00 | 0.00 | 72 | 1008.4 |
| 20260508190131 | 61 | 1 | 0.0 | 3.0 | 0.00 | 0.00 | 0.00 | 72 | 1008.5 |
| 20260508190042 | 60 | 0 | 0.0 | 2.0 | 0.00 | 0.00 | 0.00 | 71 | 1009.0 |
| 20260508185631 | 61 | 135 | 1.0 | 3.0 | 0.00 | 0.00 | 0.00 | 72 | 1008.4 |
| 20260508185131 | 61 | 38 | 1.0 | 2.0 | 0.00 | 0.00 | 0.00 | 73 | 1008.3 |
| 20260508184631 | 61 | 223 | 0.0 | 1.0 | 0.00 | 0.00 | 0.00 | 72 | 1008.3 |
| 20260508184539 | 61 | 0 | 0.0 | 2.0 | 0.00 | 0.00 | 0.00 | 91 | 1008.9 |
| 20260508184130 | 61 | 269 | 1.0 | 2.0 | 0.00 | 0.00 | 0.00 | 71 | 1008.2 |
| 20260508183630 | 61 | 89 | 0.0 | 2.0 | 0.00 | 0.00 | 0.00 | 71 | 1008.2 |
| 20260508183131 | 61 | 135 | 1.0 | 2.0 | 0.00 | 0.00 | 0.00 | 70 | 1008.2 |
| 20260508183039 | 61 | 265 | 1.0 | 2.0 | 0.00 | 0.00 | 0.00 | 91 | 1008.7 |
| 20260508182630 | 62 | 269 | 1.0 | 4.0 | 0.00 | 0.00 | 0.00 | 72 | 1008.2 |
| 20260508182131 | 62 | 63 | 1.0 | 4.0 | 0.00 | 0.00 | 0.00 | 71 | 1008.1 |
| 20260508181630 | 62 | 16 | 1.0 | 2.0 | 0.00 | 0.00 | 0.00 | 71 | 1008.0 |
| 20260508181539 | 61 | 93 | 0.0 | 1.0 | 0.00 | 0.00 | 0.00 | 91 | 1008.6 |
| 20260508181131 | 62 | 89 | 1.0 | 2.0 | 0.00 | 0.00 | 0.00 | 71 | 1008.1 |
| 20260508180629 | 61 | 45 | 1.0 | 2.0 | 0.00 | 0.00 | 0.00 | 70 | 1008.0 |
| 20260508180131 | 61 | 135 | 1.0 | 2.0 | 0.00 | 0.00 | 0.00 | 70 | 1008.0 |
| 20260508180039 | 61 | 165 | 1.0 | 3.0 | 0.00 | 0.00 | 0.00 | 89 | 1008.5 |
| 20260508175855 | 61 | 45 | 1.0 | 2.0 | 0.00 | 0.00 | 0.00 | 71 | 1007.9 |
| 20260508175131 | 61 | 283 | 1.0 | 2.0 | 0.00 | 0.00 | 0.00 | 70 | 1007.9 |
| 20260508174629 | 61 | 63 | 1.0 | 3.0 | 0.00 | 0.00 | 0.00 | 70 | 1008.0 |
| 20260508174539 | 61 | 265 | 1.0 | 2.0 | 0.00 | 0.00 | 0.00 | 89 | 1008.4 |
| 20260508174131 | 61 | 124 | 1.0 | 4.0 | 0.00 | 0.00 | 0.00 | 70 | 1007.9 |
| 20260508173630 | 61 | 145 | 2.0 | 4.0 | 0.00 | 0.00 | 0.00 | 69 | 1008.0 |
| 20260508173130 | 62 | 206 | 2.0 | 4.0 | 0.00 | 0.00 | 0.00 | 71 | 1008.1 |
| 20260508173037 | 62 | 153 | 1.0 | 5.0 | 0.00 | 0.00 | 0.00 | 92 | 1008.5 |
| 20260508172629 | 62 | 241 | 2.0 | 5.0 | 0.00 | 0.00 | 0.00 | 71 | 1008.0 |
| 20260508172129 | 62 | 164 | 2.0 | 5.0 | 0.00 | 0.00 | 0.00 | 72 | 1008.0 |
| 20260508171628 | 62 | 223 | 1.0 | 3.0 | 0.00 | 0.00 | 0.00 | 72 | 1008.1 |
| 20260508171533 | 62 | 0 | 1.0 | 2.0 | 0.00 | 0.00 | 0.00 | 92 | 1008.7 |
| 20260508171129 | 62 | 45 | 1.0 | 3.0 | 0.00 | 0.00 | 0.00 | 72 | 1008.1 |
| 20260508170628 | 62 | 165 | 1.0 | 3.0 | 0.00 | 0.00 | 0.00 | 71 | 1008.1 |
| 20260508170130 | 62 | 223 | 1.0 | 2.0 | 0.00 | 0.00 | 0.00 | 72 | 1008.1 |
| 20260508170036 | 62 | 215 | 0.0 | 1.0 | 0.00 | 0.00 | 0.00 | 92 | 1008.6 |
| 20260508165628 | 62 | 165 | 0.0 | 2.0 | 0.00 | 0.00 | 0.00 | 73 | 1008.1 |
| 20260508165129 | 62 | 1 | 1.0 | 3.0 | 0.00 | 0.00 | 0.00 | 73 | 1008.1 |
| 20260508164628 | 62 | 140 | 2.0 | 3.0 | 0.00 | 0.00 | 0.00 | 72 | 1008.1 |
| 20260508164538 | 61 | 137 | 1.0 | 2.0 | 0.00 | 0.00 | 0.00 | 91 | 1008.6 |
| 20260508164129 | 62 | 178 | 2.0 | 3.0 | 0.00 | 0.00 | 0.00 | 71 | 1008.1 |
| 20260508163901 | 62 | 234 | 1.0 | 3.0 | 0.00 | 0.00 | 0.00 | 71 | 1008.1 |
| 20260508163129 | 62 | 223 | 2.0 | 3.0 | 0.00 | 0.00 | 0.00 | 71 | 1008.1 |
| 20260508163034 | 61 | 247 | 1.0 | 2.0 | 0.00 | 0.00 | 0.00 | 71 | 1008.7 |
| 20260508162852 | 62 | 234 | 1.0 | 2.0 | 0.00 | 0.00 | 0.00 | 72 | 1008.1 |
| 20260508162128 | 62 | 45 | 1.0 | 3.0 | 0.00 | 0.00 | 0.00 | 74 | 1008.1 |
| 20260508161627 | 62 | 149 | 1.0 | 6.0 | 0.00 | 0.00 | 0.00 | 73 | 1008.2 |
| 20260508161533 | 61 | 265 | 1.0 | 3.0 | 0.00 | 0.00 | 0.00 | 71 | 1008.7 |
| 20260508161128 | 62 | 269 | 2.0 | 6.0 | 0.00 | 0.00 | 0.00 | 72 | 1008.1 |
| 20260508160627 | 62 | 231 | 0.0 | 2.0 | 0.00 | 0.00 | 0.00 | 74 | 1008.2 |
| 20260508160128 | 62 | 152 | 1.0 | 2.0 | 0.00 | 0.00 | 0.00 | 74 | 1008.3 |
| 20260508160037 | 61 | 38 | 1.0 | 2.0 | 0.00 | 0.00 | 0.00 | 93 | 1008.8 |
| 20260508155627 | 61 | 314 | 1.0 | 3.0 | 0.00 | 0.00 | 0.00 | 74 | 1008.2 |
| 20260508155348 | 61 | 178 | 1.0 | 3.0 | 0.00 | 0.00 | 0.00 | 73 | 1008.3 |
| 20260508154627 | 61 | 1 | 1.0 | 5.0 | 0.00 | 0.00 | 0.00 | 73 | 1008.3 |
| 20260508154536 | 61 | 200 | 1.0 | 5.0 | 0.00 | 0.00 | 0.00 | 93 | 1008.9 |
| 20260508154128 | 61 | 283 | 2.0 | 5.0 | 0.00 | 0.00 | 0.00 | 72 | 1008.4 |
| 20260508153627 | 61 | 159 | 2.0 | 5.0 | 0.00 | 0.00 | 0.00 | 73 | 1008.3 |
| 20260508153127 | 62 | 223 | 1.0 | 3.0 | 0.00 | 0.00 | 0.00 | 74 | 1008.3 |
| 20260508153107 | 61 | 269 | 1.0 | 4.0 | 0.00 | 0.00 | 0.00 | 74 | 1008.3 |
| 20260508153041 | 60 | 41 | 1.0 | 2.0 | 0.00 | 0.00 | 0.00 | 93 | 1008.7 |
| 20260508152127 | 61 | 223 | 1.0 | 4.0 | 0.00 | 0.00 | 0.00 | 74 | 1008.3 |
| 20260508151626 | 61 | 135 | 2.0 | 4.0 | 0.00 | 0.00 | 0.00 | 73 | 1008.3 |
| 20260508151539 | 60 | 221 | 1.0 | 3.0 | 0.00 | 0.00 | 0.00 | 93 | 1008.8 |
| 20260508151127 | 61 | 178 | 2.0 | 4.0 | 0.00 | 0.00 | 0.00 | 73 | 1008.3 |
| 20260508150846 | 61 | 45 | 1.0 | 3.0 | 0.00 | 0.00 | 0.00 | 73 | 1008.4 |
| 20260508150358 | 61 | 237 | 1.0 | 2.0 | 0.00 | 0.00 | 0.00 | 73 | 1008.3 |
| 20260508150042 | 60 | 221 | 1.0 | 2.0 | 0.00 | 0.00 | 0.00 | 93 | 1008.9 |
| 20260508145626 | 61 | 269 | 1.0 | 2.0 | 0.00 | 0.00 | 0.00 | 74 | 1008.4 |
| 20260508145352 | 60 | 269 | 1.0 | 4.0 | 0.00 | 0.00 | 0.00 | 71 | 1008.4 |
| 20260508144848 | 60 | 161 | 2.0 | 4.0 | 0.00 | 0.00 | 0.00 | 70 | 1008.5 |
| 20260508144538 | 60 | 221 | 1.0 | 2.0 | 0.00 | 0.00 | 0.00 | 81 | 1009.1 |
| 20260508144127 | 61 | 220 | 2.0 | 3.0 | 0.00 | 0.00 | 0.00 | 71 | 1008.5 |
| 20260508143626 | 60 | 257 | 1.0 | 3.0 | 0.00 | 0.00 | 0.00 | 70 | 1008.5 |
| 20260508143126 | 61 | 223 | 2.0 | 4.0 | 0.00 | 0.00 | 0.00 | 69 | 1008.6 |
| 20260508143036 | 60 | 201 | 1.0 | 3.0 | 0.00 | 0.00 | 0.00 | 81 | 1009.1 |
| 20260508142625 | 61 | 230 | 2.0 | 4.0 | 0.00 | 0.00 | 0.00 | 70 | 1008.6 |
| 20260508142607 | 61 | 220 | 1.0 | 4.0 | 0.00 | 0.00 | 0.00 | 69 | 1008.5 |
| 20260508141625 | 61 | 241 | 2.0 | 6.0 | 0.00 | 0.00 | 0.00 | 69 | 1008.5 |
| 20260508141537 | 60 | 196 | 1.0 | 3.0 | 0.00 | 0.00 | 0.00 | 81 | 1009.1 |
| 20260508141126 | 61 | 269 | 2.0 | 6.0 | 0.00 | 0.00 | 0.00 | 69 | 1008.7 |
| 20260508140624 | 61 | 213 | 2.0 | 4.0 | 0.00 | 0.00 | 0.00 | 68 | 1008.7 |
| 20260508140126 | 61 | 228 | 2.0 | 4.0 | 0.00 | 0.00 | 0.00 | 69 | 1008.6 |
| 20260508140041 | 60 | 232 | 2.0 | 4.0 | 0.00 | 0.00 | 0.00 | 81 | 1009.2 |
| 20260508135624 | 61 | 234 | 1.0 | 6.0 | 0.00 | 0.00 | 0.00 | 69 | 1008.7 |
| 20260508135126 | 61 | 237 | 2.0 | 6.0 | 0.00 | 0.00 | 0.00 | 75 | 1008.7 |
| 20260508134624 | 60 | 223 | 2.0 | 4.0 | 0.00 | 0.00 | 0.00 | 76 | 1008.7 |
| 20260508134539 | 60 | 239 | 1.0 | 2.0 | 0.00 | 0.00 | 0.00 | 81 | 1009.2 |
| 20260508134125 | 60 | 228 | 2.0 | 4.0 | 0.00 | 0.00 | 0.00 | 77 | 1008.8 |
| 20260508133623 | 60 | 309 | 0.0 | 3.0 | 0.00 | 0.00 | 0.00 | 77 | 1008.8 |
| 20260508133125 | 60 | 237 | 1.0 | 4.0 | 0.00 | 0.00 | 0.00 | 79 | 1008.8 |
| 20260508133038 | 60 | 221 | 1.0 | 2.0 | 0.00 | 0.00 | 0.00 | 81 | 1009.4 |
| 20260508132624 | 60 | 230 | 1.0 | 4.0 | 0.00 | 0.00 | 0.00 | 79 | 1008.9 |
| 20260508132125 | 60 | 230 | 2.0 | 3.0 | 0.00 | 0.00 | 0.00 | 77 | 1008.8 |
| 20260508131624 | 61 | 223 | 1.0 | 3.0 | 0.00 | 0.00 | 0.00 | 76 | 1008.9 |
| 20260508131537 | 61 | 205 | 1.0 | 2.0 | 0.00 | 0.00 | 0.00 | 81 | 1009.3 |
| 20260508131124 | 62 | 230 | 2.0 | 3.0 | 0.00 | 0.00 | 0.00 | 75 | 1008.8 |
| 20260508130851 | 62 | 213 | 1.0 | 6.0 | 0.00 | 0.00 | 0.00 | 74 | 1008.7 |
| 20260508130351 | 62 | 230 | 2.0 | 6.0 | 0.00 | 0.00 | 0.00 | 68 | 1008.7 |
| 20260508130103 | 63 | 243 | 2.0 | 4.0 | 0.00 | 0.00 | 0.00 | 81 | 1009.2 |
| 20260508125623 | 63 | 247 | 2.0 | 4.0 | 0.00 | 0.00 | 0.00 | 67 | 1008.6 |
| 20260508125125 | 63 | 148 | 1.0 | 2.0 | 0.00 | 0.00 | 0.00 | 64 | 1008.5 |
| 20260508124847 | 63 | 202 | 1.0 | 2.0 | 0.00 | 0.00 | 0.00 | 63 | 1008.3 |
| 20260508124539 | 64 | 217 | 0.0 | 3.0 | 0.00 | 0.00 | 0.00 | 81 | 1008.8 |
| 20260508124124 | 64 | 193 | 1.0 | 4.0 | 0.00 | 0.00 | 0.00 | 62 | 1008.2 |
| 20260508123622 | 64 | 217 | 1.0 | 4.0 | 0.00 | 0.00 | 0.00 | 62 | 1008.2 |
| 20260508123123 | 64 | 241 | 1.0 | 3.0 | 0.00 | 0.00 | 0.00 | 63 | 1008.1 |
| 20260508123038 | 64 | 221 | 1.0 | 2.0 | 0.00 | 0.00 | 0.00 | 82 | 1008.6 |
| 20260508122622 | 64 | 223 | 2.0 | 4.0 | 0.00 | 0.00 | 0.00 | 62 | 1008.1 |
| 20260508122343 | 64 | 213 | 1.0 | 6.0 | 0.00 | 0.00 | 0.00 | 63 | 1008.3 |
| 20260508121622 | 64 | 230 | 1.0 | 6.0 | 0.00 | 0.00 | 0.00 | 63 | 1008.2 |
| 20260508121537 | 64 | 217 | 2.0 | 5.0 | 0.00 | 0.00 | 0.00 | 63 | 1008.7 |
| 20260508121122 | 64 | 210 | 2.0 | 3.0 | 0.00 | 0.00 | 0.00 | 62 | 1008.3 |
| 20260508120621 | 64 | 223 | 2.0 | 3.0 | 0.00 | 0.00 | 0.00 | 63 | 1008.3 |
| 20260508120123 | 64 | 223 | 1.0 | 4.0 | 0.00 | 0.00 | 0.00 | 64 | 1008.4 |
| 20260508120035 | 64 | 34 | 0.0 | 3.0 | 0.00 | 0.00 | 0.00 | 86 | 1008.9 |
| 20260508115621 | 64 | 209 | 2.0 | 5.0 | 0.00 | 0.00 | 0.00 | 64 | 1008.4 |
| 20260508115122 | 64 | 216 | 2.0 | 5.0 | 0.00 | 0.00 | 0.00 | 63 | 1008.3 |
| 20260508114851 | 64 | 189 | 2.0 | 5.0 | 0.00 | 0.00 | 0.00 | 66 | 1008.4 |
| 20260508114541 | 64 | 265 | 1.0 | 4.0 | 0.00 | 0.00 | 0.00 | 86 | 1008.9 |
| 20260508114123 | 64 | 157 | 2.0 | 5.0 | 0.00 | 0.00 | 0.00 | 67 | 1008.3 |
| 20260508113622 | 64 | 241 | 1.0 | 3.0 | 0.00 | 0.00 | 0.00 | 65 | 1008.2 |
| 20260508113348 | 64 | 269 | 2.0 | 4.0 | 0.00 | 0.00 | 0.00 | 67 | 1008.2 |
| 20260508113043 | 64 | 164 | 1.0 | 4.0 | 0.00 | 0.00 | 0.00 | 70 | 1008.8 |
| 20260508112620 | 64 | 135 | 2.0 | 6.0 | 0.00 | 0.00 | 0.00 | 68 | 1008.2 |
| 20260508112122 | 64 | 135 | 2.0 | 6.0 | 0.00 | 0.00 | 0.00 | 68 | 1008.3 |
| 20260508111620 | 63 | 314 | 1.0 | 3.0 | 0.00 | 0.00 | 0.00 | 71 | 1008.3 |
| 20260508111539 | 61 | 64 | 1.0 | 3.0 | 0.00 | 0.00 | 0.00 | 71 | 1008.9 |
| 20260508111121 | 63 | 228 | 2.0 | 5.0 | 0.00 | 0.00 | 0.00 | 71 | 1008.4 |
| 20260508110840 | 62 | 45 | 2.0 | 5.0 | 0.00 | 0.00 | 0.00 | 70 | 1008.6 |
| 20260508110121 | 62 | 135 | 1.0 | 5.0 | 0.00 | 0.00 | 0.00 | 71 | 1008.7 |
| 20260508110040 | 61 | 0 | 1.0 | 3.0 | 0.00 | 0.00 | 0.00 | 71 | 1009.1 |
| 20260508105838 | 62 | 128 | 2.0 | 3.0 | 0.00 | 0.00 | 0.00 | 72 | 1008.6 |
| 20260508105121 | 62 | 168 | 2.0 | 7.0 | 0.00 | 0.00 | 0.00 | 73 | 1008.6 |
| 20260508104620 | 62 | 223 | 3.0 | 7.0 | 0.00 | 0.00 | 0.00 | 73 | 1008.7 |
| 20260508104602 | 61 | 0 | 1.0 | 2.0 | 0.00 | 0.00 | 0.00 | 93 | 1009.2 |
| 20260508104121 | 61 | 241 | 2.0 | 3.0 | 0.00 | 0.00 | 0.00 | 74 | 1008.7 |
| 20260508103842 | 61 | 206 | 1.0 | 5.0 | 0.00 | 0.00 | 0.00 | 74 | 1008.8 |
| 20260508103121 | 61 | 135 | 2.0 | 5.0 | 0.00 | 0.00 | 0.00 | 73 | 1008.8 |
| 20260508103044 | 60 | 157 | 2.0 | 4.0 | 0.00 | 0.00 | 0.00 | 92 | 1009.3 |
| 20260508102620 | 61 | 178 | 1.0 | 2.0 | 0.00 | 0.00 | 0.00 | 75 | 1008.8 |
| 20260508102121 | 61 | 145 | 1.0 | 4.0 | 0.00 | 0.00 | 0.00 | 76 | 1008.7 |
| 20260508102102 | 61 | 245 | 2.0 | 4.0 | 0.00 | 0.00 | 0.00 | 76 | 1008.6 |
| 20260508101538 | 60 | 196 | 1.0 | 3.0 | 0.00 | 0.00 | 0.00 | 75 | 1009.2 |
| 20260508101121 | 60 | 164 | 2.0 | 3.0 | 0.00 | 0.00 | 0.00 | 76 | 1008.7 |
| 20260508100619 | 60 | 152 | 1.0 | 4.0 | 0.00 | 0.00 | 0.00 | 77 | 1008.7 |
| 20260508100340 | 60 | 196 | 2.0 | 4.0 | 0.00 | 0.00 | 0.00 | 77 | 1008.6 |
| 20260508100039 | 59 | 137 | 1.0 | 4.0 | 0.00 | 0.00 | 0.00 | 76 | 1009.0 |
| 20260508095836 | 60 | 142 | 2.0 | 3.0 | 0.00 | 0.00 | 0.00 | 78 | 1008.6 |
| 20260508095349 | 59 | 234 | 1.0 | 3.0 | 0.00 | 0.00 | 0.00 | 76 | 1008.6 |
| 20260508094619 | 59 | 178 | 2.0 | 3.0 | 0.00 | 0.00 | 0.00 | 76 | 1008.6 |
| 20260508094544 | 59 | 169 | 1.0 | 2.0 | 0.00 | 0.00 | 0.00 | 76 | 1009.1 |
| 20260508094120 | 59 | 269 | 2.0 | 3.0 | 0.00 | 0.00 | 0.00 | 76 | 1008.6 |
| 20260508093618 | 59 | 178 | 1.0 | 3.0 | 0.00 | 0.00 | 0.00 | 79 | 1008.6 |
| 20260508093120 | 59 | 206 | 1.0 | 3.0 | 0.00 | 0.00 | 0.00 | 79 | 1008.6 |
| 20260508093037 | 58 | 205 | 1.0 | 2.0 | 0.00 | 0.00 | 0.00 | 79 | 1009.1 |
| 20260508092619 | 58 | 89 | 1.0 | 4.0 | 0.00 | 0.00 | 0.00 | 80 | 1008.7 |
| 20260508092119 | 58 | 137 | 2.0 | 4.0 | 0.00 | 0.00 | 0.00 | 80 | 1008.6 |
| 20260508091619 | 58 | 206 | 2.0 | 3.0 | 0.00 | 0.00 | 0.00 | 82 | 1008.6 |
| 20260508091535 | 57 | 229 | 1.0 | 2.0 | 0.00 | 0.00 | 0.00 | 100 | 1009.1 |
| 20260508091119 | 57 | 178 | 1.0 | 3.0 | 0.00 | 0.00 | 0.00 | 83 | 1008.6 |
| 20260508090618 | 57 | 152 | 1.0 | 3.0 | 0.00 | 0.00 | 0.00 | 84 | 1008.5 |
| 20260508090349 | 57 | 1 | 1.0 | 3.0 | 0.00 | 0.00 | 0.00 | 84 | 1008.5 |
| 20260508090050 | 56 | 0 | 0.0 | 2.0 | 0.00 | 0.00 | 0.00 | 100 | 1009.0 |
| 20260508085618 | 57 | 1 | 1.0 | 3.0 | 0.00 | 0.00 | 0.00 | 84 | 1008.6 |
| 20260508085119 | 56 | 269 | 1.0 | 3.0 | 0.00 | 0.00 | 0.00 | 85 | 1008.6 |
| 20260508085109 | 56 | 223 | 1.0 | 3.0 | 0.00 | 0.00 | 0.00 | 85 | 1008.6 |
| 20260508084540 | 56 | 142 | 2.0 | 2.0 | 0.00 | 0.00 | 0.00 | 100 | 1009.1 |
| 20260508084118 | 56 | 178 | 1.0 | 3.0 | 0.00 | 0.00 | 0.00 | 86 | 1008.6 |
| 20260508083836 | 56 | 223 | 1.0 | 3.0 | 0.00 | 0.00 | 0.00 | 85 | 1008.3 |
| 20260508083118 | 56 | 51 | 2.0 | 3.0 | 0.00 | 0.00 | 0.00 | 86 | 1008.2 |
| 20260508083056 | 55 | 64 | 0.0 | 2.0 | 0.00 | 0.00 | 0.00 | 100 | 1008.8 |
| 20260508082617 | 56 | 109 | 1.0 | 3.0 | 0.00 | 0.00 | 0.00 | 87 | 1008.4 |
| 20260508082118 | 56 | 28 | 1.0 | 3.0 | 0.00 | 0.00 | 0.00 | 87 | 1008.4 |
| 20260508081617 | 55 | 145 | 1.0 | 3.0 | 0.00 | 0.00 | 0.00 | 87 | 1008.5 |
| 20260508081552 | 55 | 93 | 1.0 | 1.0 | 0.00 | 0.00 | 0.00 | 100 | 1008.9 |
| 20260508081118 | 55 | 241 | 1.0 | 2.0 | 0.00 | 0.00 | 0.00 | 88 | 1008.6 |
| 20260508080833 | 55 | 314 | 1.0 | 2.0 | 0.00 | 0.00 | 0.00 | 88 | 1008.6 |
| 20260508080117 | 55 | 145 | 1.0 | 2.0 | 0.00 | 0.00 | 0.00 | 88 | 1008.5 |
| 20260508080041 | 54 | 0.0 | 1.0 | 0.00 | 0.00 | 0.00 | 100 | 1009.0 | |
| 20260508075616 | 55 | 216 | 1.0 | 3.0 | 0.00 | 0.00 | 0.00 | 88 | 1008.5 |
| 20260508075117 | 55 | 269 | 1.0 | 3.0 | 0.00 | 0.00 | 0.00 | 88 | 1008.2 |
| 20260508074835 | 55 | 1 | 2.0 | 2.0 | 0.00 | 0.00 | 0.00 | 88 | 1008.3 |
| 20260508074534 | 54 | 61 | 1.0 | 3.0 | 0.00 | 0.00 | 0.00 | 100 | 1008.8 |
| 20260508074117 | 54 | 89 | 1.0 | 4.0 | 0.00 | 0.00 | 0.00 | 88 | 1008.4 |
| 20260508073616 | 54 | 135 | 1.0 | 4.0 | 0.00 | 0.00 | 0.00 | 88 | 1008.4 |
| 20260508073117 | 54 | 104 | 2.0 | 3.0 | 0.00 | 0.00 | 0.00 | 88 | 1008.4 |
| 20260508073036 | 54 | 61 | 2.0 | 2.0 | 0.00 | 0.00 | 0.00 | 100 | 1008.9 |
| 20260508072616 | 54 | 1 | 1.0 | 4.0 | 0.00 | 0.00 | 0.00 | 89 | 1008.4 |
| 20260508072117 | 54 | 140 | 2.0 | 4.0 | 0.00 | 0.00 | 0.00 | 89 | 1008.5 |
| 20260508071616 | 54 | 45 | 1.0 | 3.0 | 0.00 | 0.00 | 0.00 | 89 | 1008.5 |
| 20260508071536 | 53 | 51 | 1.0 | 2.0 | 0.00 | 0.00 | 0.00 | 100 | 1008.9 |
| 20260508071117 | 54 | 56 | 1.0 | 3.0 | 0.00 | 0.00 | 0.00 | 89 | 1008.5 |
| 20260508070615 | 54 | 223 | 2.0 | 3.0 | 0.00 | 0.00 | 0.00 | 89 | 1008.4 |
| 20260508070124 | 53 | 57 | 1.0 | 3.0 | 0.00 | 0.00 | 0.00 | 100 | 1008.9 |
| 20260508070117 | 53 | 197 | 1.0 | 3.0 | 0.00 | 0.00 | 0.00 | 89 | 1008.4 |
| 20260508065615 | 53 | 168 | 2.0 | 3.0 | 0.00 | 0.00 | 0.00 | 89 | 1008.4 |
| 20260508065116 | 53 | 89 | 1.0 | 2.0 | 0.00 | 0.00 | 0.00 | 89 | 1008.3 |
| 20260508064835 | 53 | 178 | 1.0 | 3.0 | 0.00 | 0.00 | 0.00 | 89 | 1008.2 |
| 20260508064540 | 53 | 0 | 1.0 | 2.0 | 0.00 | 0.00 | 0.00 | 100 | 1008.7 |
| 20260508064116 | 53 | 157 | 1.0 | 4.0 | 0.00 | 0.00 | 0.00 | 89 | 1008.2 |
| 20260508063836 | 53 | 124 | 2.0 | 4.0 | 0.00 | 0.00 | 0.00 | 89 | 1008.2 |
| 20260508063115 | 53 | 45 | 1.0 | 1.0 | 0.00 | 0.00 | 0.00 | 89 | 1008.2 |
| 20260508063038 | 53 | 239 | 0.0 | 1.0 | 0.00 | 0.00 | 0.00 | 100 | 1008.6 |
| 20260508062614 | 53 | 45 | 1.0 | 2.0 | 0.00 | 0.00 | 0.00 | 89 | 1008.0 |
| 20260508062115 | 53 | 1 | 1.0 | 2.0 | 0.00 | 0.00 | 0.00 | 89 | 1007.9 |
| 20260508061614 | 53 | 20 | 1.0 | 2.0 | 0.00 | 0.00 | 0.00 | 89 | 1007.8 |
| 20260508061554 | 53 | 89 | 1.0 | 2.0 | 0.00 | 0.00 | 0.00 | 89 | 1007.8 |
| 20260508061539 | 52 | 51 | 1.0 | 1.0 | 0.00 | 0.00 | 0.00 | 100 | 1008.3 |
| 20260508060613 | 53 | 296 | 1.0 | 2.0 | 0.00 | 0.00 | 0.00 | 89 | 1007.6 |
| 20260508060115 | 53 | 32 | 1.0 | 3.0 | 0.00 | 0.00 | 0.00 | 89 | 1007.5 |
| 20260508060039 | 52 | 47 | 1.0 | 2.0 | 0.00 | 0.00 | 0.00 | 100 | 1008.1 |
| 20260508055613 | 53 | 168 | 2.0 | 3.0 | 0.00 | 0.00 | 0.00 | 89 | 1007.6 |
| 20260508055335 | 53 | 28 | 1.0 | 2.0 | 0.00 | 0.00 | 0.00 | 89 | 1007.6 |
| 20260508054614 | 53 | 145 | 1.0 | 3.0 | 0.00 | 0.00 | 0.00 | 89 | 1007.6 |
| 20260508054542 | 52 | 221 | 1.0 | 2.0 | 0.00 | 0.00 | 0.00 | 100 | 1008.1 |
| 20260508054115 | 53 | 63 | 2.0 | 3.0 | 0.00 | 0.00 | 0.00 | 89 | 1007.5 |
| 20260508053837 | 53 | 121 | 1.0 | 2.0 | 0.00 | 0.00 | 0.00 | 89 | 1007.6 |
| 20260508053114 | 53 | 135 | 1.0 | 2.0 | 0.00 | 0.00 | 0.00 | 89 | 1007.6 |
| 20260508053039 | 52 | 93 | 1.0 | 2.0 | 0.00 | 0.00 | 0.00 | 100 | 1008.1 |
| 20260508052612 | 53 | 45 | 1.0 | 3.0 | 0.00 | 0.00 | 0.00 | 89 | 1007.6 |
| 20260508052114 | 53 | 63 | 2.0 | 3.0 | 0.00 | 0.00 | 0.00 | 89 | 1007.7 |
| 20260508051613 | 53 | 135 | 1.0 | 3.0 | 0.00 | 0.00 | 0.00 | 89 | 1007.7 |
| 20260508051539 | 52 | 51 | 1.0 | 1.0 | 0.00 | 0.00 | 0.00 | 100 | 1008.2 |
| 20260508051114 | 53 | 168 | 1.0 | 3.0 | 0.00 | 0.00 | 0.00 | 88 | 1007.7 |
| 20260508050613 | 53 | 63 | 1.0 | 3.0 | 0.00 | 0.00 | 0.00 | 88 | 1007.7 |
| 20260508050114 | 53 | 1 | 1.0 | 2.0 | 0.00 | 0.00 | 0.00 | 88 | 1007.8 |
| 20260508050039 | 53 | 282 | 0.0 | 1.0 | 0.00 | 0.00 | 0.00 | 100 | 1008.3 |
| 20260508045612 | 53 | 331 | 1.0 | 2.0 | 0.00 | 0.00 | 0.00 | 88 | 1007.7 |
| 20260508045113 | 53 | 16 | 1.0 | 2.0 | 0.00 | 0.00 | 0.00 | 88 | 1007.7 |
| 20260508044612 | 53 | 290 | 1.0 | 2.0 | 0.00 | 0.00 | 0.00 | 88 | 1007.7 |
| 20260508044539 | 53 | 0 | 0.0 | 2.0 | 0.00 | 0.00 | 0.00 | 100 | 1008.2 |
| 20260508044113 | 53 | 241 | 0.0 | 2.0 | 0.00 | 0.00 | 0.00 | 88 | 1007.6 |
| 20260508043612 | 53 | 89 | 0.0 | 3.0 | 0.00 | 0.00 | 0.00 | 88 | 1007.6 |
| 20260508043113 | 53 | 193 | 1.0 | 3.0 | 0.00 | 0.00 | 0.00 | 88 | 1007.6 |
| 20260508043056 | 53 | 0 | 0.0 | 1.0 | 0.00 | 0.00 | 0.00 | 100 | 1008.2 |
| 20260508042611 | 53 | 135 | 1.0 | 2.0 | 0.00 | 0.00 | 0.00 | 88 | 1007.6 |
| 20260508042113 | 53 | 178 | 1.0 | 2.0 | 0.00 | 0.00 | 0.00 | 88 | 1007.6 |
| 20260508041612 | 53 | 135 | 1.0 | 2.0 | 0.00 | 0.00 | 0.00 | 88 | 1007.6 |
| 20260508041537 | 53 | 93 | 0.0 | 1.0 | 0.00 | 0.00 | 0.00 | 100 | 1008.2 |
| 20260508041112 | 53 | 89 | 1.0 | 2.0 | 0.00 | 0.00 | 0.00 | 88 | 1007.6 |
| 20260508040611 | 53 | 56 | 1.0 | 2.0 | 0.00 | 0.00 | 0.00 | 88 | 1007.6 |
| 20260508040113 | 53 | 45 | 0.0 | 2.0 | 0.00 | 0.00 | 0.00 | 88 | 1007.7 |
| 20260508040038 | 53 | 57 | 0.0 | 1.0 | 0.00 | 0.00 | 0.00 | 100 | 1008.1 |
| 20260508035611 | 53 | 89 | 0.0 | 2.0 | 0.00 | 0.00 | 0.00 | 89 | 1007.7 |
| 20260508035112 | 53 | 16 | 1.0 | 2.0 | 0.00 | 0.00 | 0.00 | 88 | 1007.8 |
| 20260508034611 | 53 | 45 | 0.0 | 2.0 | 0.00 | 0.00 | 0.00 | 88 | 1007.8 |
| 20260508034540 | 52 | 0 | 1.0 | 2.0 | 0.00 | 0.00 | 0.00 | 100 | 1008.3 |
| 20260508034333 | 53 | 63 | 1.0 | 3.0 | 0.00 | 0.00 | 0.00 | 89 | 1007.8 |
| 20260508033611 | 53 | 117 | 1.0 | 3.0 | 0.00 | 0.00 | 0.00 | 89 | 1007.8 |
| 20260508033111 | 53 | 161 | 2.0 | 3.0 | 0.00 | 0.00 | 0.00 | 89 | 1007.8 |
| 20260508033039 | 52 | 115 | 1.0 | 2.0 | 0.00 | 0.00 | 0.00 | 100 | 1008.5 |
| 20260508032611 | 53 | 1 | 1.0 | 3.0 | 0.00 | 0.00 | 0.00 | 89 | 1008.0 |
| 20260508032112 | 53 | 76 | 1.0 | 3.0 | 0.00 | 0.00 | 0.00 | 89 | 1008.0 |
| 20260508031829 | 53 | 149 | 1.0 | 3.0 | 0.00 | 0.00 | 0.00 | 89 | 1008.0 |
| 20260508031550 | 52 | 93 | 1.0 | 2.0 | 0.00 | 0.00 | 0.00 | 100 | 1008.5 |
| 20260508031111 | 53 | 89 | 1.0 | 2.0 | 0.00 | 0.00 | 0.00 | 89 | 1008.0 |
| 20260508030610 | 52 | 117 | 1.0 | 2.0 | 0.00 | 0.00 | 0.00 | 89 | 1007.9 |
| 20260508030333 | 52 | 178 | 1.0 | 2.0 | 0.00 | 0.00 | 0.00 | 89 | 1007.9 |
| 20260508030048 | 52 | 51 | 0.0 | 1.0 | 0.00 | 0.00 | 0.00 | 100 | 1008.4 |
| 20260508025828 | 52 | 152 | 1.0 | 2.0 | 0.00 | 0.00 | 0.00 | 89 | 1007.8 |
| 20260508025111 | 52 | 56 | 1.0 | 3.0 | 0.00 | 0.00 | 0.00 | 89 | 1007.8 |
| 20260508024609 | 52 | 178 | 1.0 | 3.0 | 0.00 | 0.00 | 0.00 | 90 | 1007.9 |
| 20260508024536 | 52 | 165 | 1.0 | 1.0 | 0.00 | 0.00 | 0.00 | 100 | 1008.3 |
| 20260508024111 | 52 | 165 | 1.0 | 2.0 | 0.00 | 0.00 | 0.00 | 90 | 1007.9 |
| 20260508023609 | 52 | 178 | 1.0 | 2.0 | 0.00 | 0.00 | 0.00 | 90 | 1007.8 |
| 20260508023555 | 52 | 89 | 1.0 | 2.0 | 0.00 | 0.00 | 0.00 | 89 | 1007.8 |
| 20260508023041 | 52 | 76 | 1.0 | 1.0 | 0.00 | 0.00 | 0.00 | 100 | 1008.3 |
| 20260508022609 | 52 | 45 | 0.0 | 1.0 | 0.00 | 0.00 | 0.00 | 89 | 1007.9 |
| 20260508022332 | 52 | 269 | 0.0 | 2.0 | 0.00 | 0.00 | 0.00 | 89 | 1007.9 |
| 20260508021609 | 52 | 231 | 1.0 | 2.0 | 0.00 | 0.00 | 0.00 | 89 | 1008.0 |
| 20260508021537 | 52 | 0 | 0.0 | 1.0 | 0.00 | 0.00 | 0.00 | 100 | 1008.5 |
| 20260508021110 | 52 | 45 | 0.0 | 2.0 | 0.00 | 0.00 | 0.00 | 89 | 1008.0 |
| 20260508020609 | 52 | 35 | 1.0 | 2.0 | 0.00 | 0.00 | 0.00 | 89 | 1007.9 |
| 20260508020329 | 52 | 79 | 1.0 | 2.0 | 0.00 | 0.00 | 0.00 | 89 | 1007.9 |
| 20260508020038 | 52 | 0 | 0.0 | 2.0 | 0.00 | 0.00 | 0.00 | 100 | 1008.5 |
| 20260508015608 | 52 | 178 | 1.0 | 2.0 | 0.00 | 0.00 | 0.00 | 90 | 1007.9 |
| 20260508015109 | 52 | 117 | 1.0 | 2.0 | 0.00 | 0.00 | 0.00 | 90 | 1008.0 |
| 20260508014608 | 52 | 117 | 1.0 | 2.0 | 0.00 | 0.00 | 0.00 | 90 | 1008.1 |
| 20260508014539 | 52 | 76 | 1.0 | 1.0 | 0.00 | 0.00 | 0.00 | 100 | 1008.6 |
| 20260508014109 | 52 | 45 | 1.0 | 2.0 | 0.00 | 0.00 | 0.00 | 90 | 1008.2 |
| 20260508013608 | 52 | 178 | 1.0 | 2.0 | 0.00 | 0.00 | 0.00 | 90 | 1008.3 |
| 20260508013111 | 52 | 45 | 1.0 | 3.0 | 0.00 | 0.00 | 0.00 | 90 | 1008.3 |
| 20260508013035 | 52 | 120 | 0.0 | 2.0 | 0.00 | 0.00 | 0.00 | 100 | 1008.8 |
| 20260508012607 | 52 | 152 | 1.0 | 3.0 | 0.00 | 0.00 | 0.00 | 90 | 1008.3 |
| 20260508012109 | 52 | 145 | 0.0 | 2.0 | 0.00 | 0.00 | 0.00 | 90 | 1008.3 |
| 20260508011607 | 53 | 269 | 0.0 | 2.0 | 0.00 | 0.00 | 0.00 | 90 | 1008.3 |
| 20260508011538 | 52 | 178 | 1.0 | 1.0 | 0.00 | 0.00 | 0.00 | 100 | 1008.9 |
| 20260508011108 | 53 | 1 | 0.0 | 1.0 | 0.00 | 0.00 | 0.00 | 90 | 1008.4 |
| 20260508010608 | 53 | 63 | 0.0 | 2.0 | 0.00 | 0.00 | 0.00 | 90 | 1008.4 |
| 20260508010108 | 53 | 152 | 0.0 | 2.0 | 0.00 | 0.00 | 0.00 | 90 | 1008.5 |
| 20260508010039 | 52 | 214 | 1.0 | 2.0 | 0.00 | 0.00 | 0.00 | 100 | 1009.0 |
| 20260508005607 | 53 | 45 | 1.0 | 2.0 | 0.00 | 0.00 | 0.00 | 90 | 1008.5 |
| 20260508005109 | 53 | 45 | 0.0 | 2.0 | 0.00 | 0.00 | 0.00 | 90 | 1008.6 |
| 20260508004607 | 53 | 145 | 0.0 | 1.0 | 0.00 | 0.00 | 0.00 | 90 | 1008.7 |
| 20260508004538 | 53 | 0 | 0.0 | 1.0 | 0.00 | 0.00 | 0.00 | 100 | 1009.1 |
| 20260508004330 | 53 | 241 | 1.0 | 2.0 | 0.00 | 0.00 | 0.00 | 90 | 1008.7 |
| 20260508003607 | 53 | 28 | 1.0 | 2.0 | 0.00 | 0.00 | 0.00 | 90 | 1008.7 |
| 20260508003108 | 53 | 45 | 0.0 | 2.0 | 0.00 | 0.00 | 0.00 | 89 | 1008.7 |
| 20260508003034 | 53 | 0 | 0.0 | 1.0 | 0.00 | 0.00 | 0.00 | 100 | 1009.3 |
| 20260508002825 | 53 | 223 | 1.0 | 2.0 | 0.00 | 0.00 | 0.00 | 90 | 1008.8 |
| 20260508002108 | 53 | 45 | 0.0 | 2.0 | 0.00 | 0.00 | 0.00 | 90 | 1008.9 |
| 20260508001606 | 53 | 269 | 1.0 | 2.0 | 0.00 | 0.00 | 0.00 | 90 | 1009.0 |
| 20260508001535 | 53 | 0 | 0.0 | 1.0 | 0.00 | 0.00 | 0.00 | 100 | 1009.4 |
| 20260508001108 | 53 | 161 | 1.0 | 2.0 | 0.00 | 0.00 | 0.00 | 90 | 1008.8 |
| 20260508000606 | 53 | 314 | 0.0 | 2.0 | 0.00 | 0.00 | 0.00 | 90 | 1008.9 |
| 20260508000107 | 53 | 148 | 1.0 | 3.0 | 0.00 | 0.00 | 0.00 | 90 | 1008.9 |
| 20260508000035 | 53 | 0 | 0.0 | 2.0 | 0.00 | 0.00 | 0.00 | 100 | 1009.4 |
| 20260507235606 | 53 | 142 | 0.0 | 3.0 | 0.00 | 0.00 | 0.00 | 90 | 1009.0 |
| 20260507235107 | 53 | 117 | 1.0 | 2.0 | 0.00 | 0.00 | 0.00 | 90 | 1008.9 |
| 20260507234606 | 53 | 83 | 1.0 | 2.0 | 0.00 | 0.00 | 0.00 | 90 | 1009.1 |
| 20260507234542 | 53 | 80 | 1.0 | 2.0 | 0.00 | 0.00 | 0.00 | 100 | 1009.6 |
| 20260507234107 | 53 | 66 | 1.0 | 3.0 | 0.00 | 0.00 | 0.00 | 91 | 1009.1 |
| 20260507233605 | 53 | 76 | 2.0 | 3.0 | 0.00 | 0.00 | 0.00 | 91 | 1009.2 |
| 20260507233329 | 53 | 178 | 1.0 | 3.0 | 0.00 | 0.00 | 0.00 | 91 | 1009.2 |
| 20260507233037 | 53 | 93 | 2.0 | 3.0 | 0.00 | 0.00 | 0.00 | 100 | 1009.7 |
| 20260507232606 | 53 | 223 | 1.0 | 3.0 | 0.00 | 0.00 | 0.00 | 91 | 1009.2 |
| 20260507232107 | 53 | 140 | 1.0 | 3.0 | 0.00 | 0.00 | 0.00 | 91 | 1009.2 |
| 20260507231605 | 53 | 31 | 1.0 | 2.0 | 0.00 | 0.00 | 0.00 | 91 | 1009.3 |
| 20260507231533 | 53 | 0 | 1.0 | 2.0 | 0.00 | 0.00 | 0.00 | 100 | 1009.8 |
| 20260507231106 | 53 | 45 | 1.0 | 2.0 | 0.00 | 0.00 | 0.00 | 91 | 1009.3 |
| 20260507230605 | 53 | 45 | 0.0 | 2.0 | 0.00 | 0.00 | 0.00 | 91 | 1009.3 |
| 20260507230106 | 53 | 135 | 1.0 | 3.0 | 0.00 | 0.00 | 0.00 | 91 | 1009.4 |
| 20260507230039 | 54 | 76 | 0.0 | 2.0 | 0.00 | 0.00 | 0.00 | 100 | 1009.9 |
| 20260507225604 | 53 | 54 | 1.0 | 3.0 | 0.00 | 0.00 | 0.00 | 91 | 1009.4 |
| 20260507225106 | 53 | 45 | 1.0 | 2.0 | 0.00 | 0.00 | 0.00 | 90 | 1009.4 |
| 20260507224604 | 54 | 89 | 1.0 | 2.0 | 0.00 | 0.00 | 0.00 | 90 | 1009.5 |
| 20260507224539 | 54 | 80 | 1.0 | 1.0 | 0.00 | 0.00 | 0.00 | 100 | 1010.0 |
| 20260507224325 | 54 | 89 | 1.0 | 2.0 | 0.00 | 0.00 | 0.00 | 90 | 1009.6 |
| 20260507223828 | 54 | 135 | 1.0 | 2.0 | 0.00 | 0.00 | 0.00 | 90 | 1009.6 |
| 20260507223105 | 54 | 72 | 1.0 | 2.0 | 0.00 | 0.00 | 0.00 | 90 | 1009.7 |
| 20260507223038 | 54 | 0 | 0.0 | 2.0 | 0.00 | 0.00 | 0.00 | 100 | 1010.2 |
| 20260507222828 | 54 | 89 | 1.0 | 2.0 | 0.00 | 0.00 | 0.00 | 90 | 1009.7 |
| 20260507222105 | 55 | 89 | 1.0 | 2.0 | 0.00 | 0.00 | 0.00 | 89 | 1009.7 |
| 20260507221604 | 55 | 152 | 1.0 | 2.0 | 0.00 | 0.00 | 0.00 | 88 | 1009.8 |
| 20260507221535 | 55 | 137 | 0.0 | 1.0 | 0.00 | 0.00 | 0.00 | 100 | 1010.4 |
| 20260507221104 | 55 | 213 | 1.0 | 2.0 | 0.00 | 0.00 | 0.00 | 88 | 1009.8 |
| 20260507220603 | 55 | 135 | 0.0 | 1.0 | 0.00 | 0.00 | 0.00 | 88 | 1009.8 |